User: anonymous   Login
Location: Chippewa Lake
(41.0698°N, 81.9010°W)
Time: 09:32:27
(UTC+00:00)
Language:

BREEZE-M R/B - Orbit

View from above orbital plane
View from above orbital plane
View from above satellite
View from above satellite

Ground track
Ground track

The orbit data is extracted from the following two-line orbital elements,

1 38746U 12044C   21216.48661445  .00004281  00000-0  25838-3 0  9993
2 38746  49.6933 271.5698 2384890 246.1213  87.2670 10.55015547341017
Epoch (UTC): 04 August 2021 11:40:43
Eccentricity: 0.2384890
inclination: 49.6933°
perigee height: 309 km
apogee height: 4497 km
right ascension of ascending node: 271.5698°
argument of perigee: 246.1213°
revolutions per day: 10.55015547
mean anomaly at epoch: 87.2670°
orbit number at epoch: 34101

The dashed part of the orbit path shows where the satellite is in the earth's shadow,  

DLR